Regional Weather Roundup
Issued by NWS Binghamton, NY

Home | Current Version | Previous Version | Text Only | Print | Product List | Glossary On
Versions: 1 2 3 4 5 6 7 8 9 10 11 12 13 14 15 16 17 18 19 20 21 22 23 24 25
000
ASUS41 KBGM 231210
RWRBGM

REGIONAL WEATHER ROUNDUP
NATIONAL WEATHER SERVICE BINGHAMTON NY
800 AM EDT THU MAR 23 2017

Note: "fair" indicates few or no clouds below 12,000 feet with no
significant weather and/or obstructions to visibility.

* = Station(s) that does not report precipitation, such as rain,
snow, etc, also no thunder or fog.

NYZ009-015>018-022>025-036-037-044>046-055>057-062-231300
...Central New York...

CITY           SKY/WX    TMP DP  RH WIND       PRES   REMARKS
Binghamton     CLOUDY    14   6  70 N6        30.48R WCI   5
Cortland       FAIR       9   5  85 CALM      30.53S
Dansville      PTCLDY    15   9  76 SE6       30.59R WCI   6
Elmira         CLEAR     15   8  73 W6        30.57R WCI   6
Seneca Falls   SUNNY     19  12  73 W3        30.60R
Ithaca         CLOUDY     6   3  87 CALM      30.55R
Hamilton       SUNNY      3   0  85 CALM      30.53R
Monticello     SUNNY     12   1  62 CALM      30.49R
Norwich        SUNNY      1  -2  85 CALM      30.56R FOG
Oneonta        SUNNY     10   0  61 W3        30.46R
Penn Yan       CLEAR     20   9  62 SW6       30.56R WCI  12
Rome           SUNNY      3   0  87 CALM      30.59R
Sidney         SUNNY      5   3  92 CALM      30.55R
Syracuse       PTCLDY    12   7  80 S3        30.58R
$$

PAZ038>040-043-044-047-048-072-231300
...Northeast Pennsylvania...

CITY           SKY/WX    TMP DP  RH WIND       PRES   REMARKS
Hazleton       SUNNY     19   9  63 W5        30.54R WCI  13
Scranton       SUNNY     19   7  59 CALM      30.56R
$$
&&
KEY
WCI = Wind Chill Index
VSB = Visibility
HX  = Heat Index
$$




USA.gov is the U.S. government's official web portal to all federal, state and local government web resources and services.